Regional Weather Roundup
Issued by NWS

Home | Current Version | Previous Version | Graphics & Text | Print | Product List | Glossary Off
Versions: 1 2 3 4 5 6 7 8 9 10 11 12 13 14 15 16 17 18 19 20 21 22 23 24 25 26 27 28 29 30 31 32 33 34 35 36 37 38 39 40 41 42 43 44 45 46 47 48 49 50

962
ASUS43 KDMX 191301
RWRIA

WEATHER ROUNDUP FOR IOWA
NATIONAL WEATHER SERVICE DES MOINES IA
800 AM CDT TUE SEP 19 2017

NOTE: "FAIR" INDICATES FEW OR NO CLOUDS BELOW 12,000 FEET WITH NO
SIGNIFICANT WEATHER AND/OR OBSTRUCTIONS TO VISIBILITY.

* - THESE STATIONS ARE NOT NWS STATIONS...THUS NOT UNDER NWS
QUALITY CONTROL.  THEY ALSO DO NOT REPORT WEATHER SUCH
AS PRECIPITATION OR FOG.

IAZ001>003-012>014-020>022-031>034-043>046-191400-
   NORTHWEST IOWA

CITY           SKY/WX    TMP DP  RH WIND       PRES   REMARKS
CARROLL *      FOG       64  64 100 SE8       29.87R VSB 1/4
CHEROKEE *     CLOUDY    66  66 100 SE7       29.84S FOG
DENISON *      CLOUDY    66  64  94 CALM      29.86S
LE MARS *      CLOUDY    66  66 100 SE10      29.81S FOG
ORANGE CITY *  CLOUDY    66  66 100 SE9       29.82F FOG
SHELDON *      CLOUDY    64  64 100 SE9       29.81F FOG
SIOUX CITY     CLOUDY    67  67 100 SE10      29.80F FOG
SPENCER        FOG       66  65  96 SE14      29.86S VSB 1
STORM LAKE *   CLOUDY    64  64 100 SE7G13    29.86S FOG
$$

IAZ055>058-069>071-079>083-090>094-191400-
   SOUTHWEST IOWA

CITY           SKY/WX    TMP DP  RH WIND       PRES   REMARKS
ATLANTIC *     PTCLDY    66  64  94 VRB3      29.86R
AUDUBON *      CLEAR     64  63  94 SE3       29.87S FOG
CLARINDA *     CLOUDY    66  66 100 S7        29.89S FOG
COUNCIL BLFS * CLOUDY    66  66 100 S10       29.85R FOG
CRESTON *      FOG       63 N/A N/A SE10      29.91R VSB 1/4
HARLAN  *      CLOUDY    66  66 100 S7        29.89R
LAMONI         FOG       64  64 100 SE7       29.90S VSB 1/4
RED OAK *      CLOUDY    66  66 100 S7        29.87R FOG
SHENANDOAH *   CLOUDY    68  66  94 SE7       29.86R FOG
$$

IAZ047>049-059>061-072>074-084-191400-
   CENTRAL IOWA

CITY           SKY/WX    TMP DP  RH WIND       PRES   REMARKS
AMES           FOG       63  63 100 E6        29.90S VSB 1/4
ANKENY *       FOG       63  63 100 SE7       29.90F VSB<1/4
BOONE *        FOG       63  63 100 SE9       29.89S VSB<1/4
CHARITON *     FOG       64  63  94 SE8       29.91S VSB<1/4
DES MOINES     FOG       63  62  97 SE8       29.89S VSB 1/4
GRINNELL*      CLOUDY    63  62  97 E5        29.94R FOG
KNOXVILLE *    FOG       63  63 100 SE9       29.90S VSB<1/4
MARSHALLTOWN   CLOUDY    62  62 100 E7        29.92S FOG
NEWTON *       FOG       61  61 100 E7        29.92S VSB<1/4
PELLA *        FOG       63  62  97 SE5       29.93R VSB 1/2
PERRY *        FOG       64  64  99 SE5       29.89R VSB 1/4
$$

IAZ004>006-015-016-023>025-035-036-191400-
   NORTH CENTRAL IOWA

CITY           SKY/WX    TMP DP  RH WIND       PRES   REMARKS
ALGONA *       FOG       64  64 100 SE8       29.90R VSB<1/4
CLARION *      FOG       63  63 100 SE10      29.91S VSB 1/2
ESTHERVILLE    FOG       63  63 100 SE10      29.87R VSB 1/4
FORT DODGE *   FOG       64  63  96 SE8       29.89F VSB 3/4
MASON CITY     FOG       61  61 100 SE6       29.94R VSB 3/4
FOREST CITY *  FOG       63  63 100 SE8       29.92S VSB<1/4
WEBSTER CITY * FOG       63  63 100 SE8       29.88S VSB 1/4
IOWA FALLS *   DRZL/FOG  63  63 100 SE6       29.93S VSB<1/4
$$

IAZ007>011-017>019-026>030-037>042-050>054-066-191400-
   NORTHEAST IOWA

CITY           SKY/WX    TMP DP  RH WIND       PRES   REMARKS
CEDAR RAPIDS   FOG       62  62 100 E6        29.94S VSB<1/4
CHARLES CITY * CLOUDY    59  59 100 SE7       29.95S FOG
CLINTON *      CLOUDY    61  60  97 CALM      29.96S FOG
DECORAH *      CLOUDY    57  57 100 SE6       29.95F
DUBUQUE        FOG       58  58 100 SE3       29.97S VSB<1/4
MONTICELLO *   FOG       61  61 100 SE5       29.96R VSB<1/4
OELWEIN *      FOG       61  61 100 E6        29.95F VSB<1/4
WATERLOO       FOG       57  57 100 E5        29.93S VSB<1/4
$$

IAZ064-065-067-068-078-191400-
   EAST CENTRAL IOWA

CITY           SKY/WX    TMP DP  RH WIND       PRES   REMARKS
DAVENPORT      CLOUDY    61  60  97 E5        29.97S FOG
IOWA CITY      FOG       64  63  96 SE3       29.96R VSB<1/4
MUSCATINE *    FOG       66  64  94 SE5       29.95S VSB<1/4
QUAD CITIES    FOG       63  61  93 E5        29.95S VSB 1/4
$$

IAZ062-063-075>077-085>089-095>099-191400-
   SOUTHEAST IOWA

CITY           SKY/WX    TMP DP  RH WIND       PRES   REMARKS
BURLINGTON     FOG       65  65 100 E3        29.94S VSB<1/4
FAIRFIELD *    FOG       66  66 100 E5        29.93S VSB<1/4
FORT MADISON * FOG       66  66 100 CALM      29.95S VSB<1/4
KEOKUK *       CLOUDY    66  66 100 SE6       29.93S FOG
OSKALOOSA *    FOG       59  58  99 CALM      29.93R VSB<1/4
OTTUMWA        FOG       62  62 100 SE3       29.93R VSB<1/4
WASHINGTON *   FOG       63  63 100 E5        29.95S VSB<1/4
$$

ABBREVIATIONS USED IN REMARKS
   TC - TEMPERATURES IN CELSIUS
  WCI - WIND CHILL INDEX
   HX - HEAT INDEX
  VSB - VISIBILITY
$$





USA.gov is the U.S. government's official web portal to all federal, state and local government web resources and services.